Dewpoint
71 71 70 70 70 69 71 70 67 65 64 66 68 71 74 74 73 73 75 71 70 69 69 69 70 71 72 72 72 72 71 71 71 70 70 70 70 70
71 72 72 71 72 72 72 71 70 68 65 66 69 70 72 71 74 74 73 71 70 69 68 68 68 70 70 71 71 71 70 70 69 69 69 69 69 69
71 72 72 72 70 71 71 72 71 69 67 69 69 71 71 73 73 74 74 73 73 68 68 67 67 68 69 70 70 69 69 68 68 68 68 68 68 68
71 71 71 70 72 71 70 71 71 71 70 69 70 71 71 72 73 73 73 74 74 71 67 67 66 66 67 67 67 67 66 65 66 66 67 68 68 68
72 71 71 71 71 71 72 71 70 71 71 70 70 70 71 71 72 72 72 73 73 71 67 66 66 66 66 65 64 63 61 61 62 63 65 66 66 66
72 72 71 71 71 71 70 71 71 70 71 70 70 70 71 70 71 71 71 71 71 71 71 69 68 67 66 65 64 63 60 61 60 60 61 62 63 64
71 72 72 71 70 70 72 72 71 71 70 70 70 70 70 70 70 71 70 70 70 71 69 69 69 70 69 66 67 66 62 61 60 59 59 59 60 60
71 72 72 70 70 67 66 67 70 71 71 70 70 69 68 69 70 70 69 68 68 71 68 68 69 69 68 68 66 64 62 61 60 59 58 57 57 57
70 70 68 67 62 62 61 61 62 64 66 69 68 69 69 70 70 69 69 70 70 70 69 67 67 65 66 66 63 62 61 60 59 58 57 56 56 55
65 62 61 61 60 59 59 59 59 59 61 61 65 65 66 67 69 69 69 69 70 69 69 64 61 59 61 63 62 61 60 59 58 57 56 54 53 52
62 61 60 59 58 58 58 57 57 56 56 57 58 59 59 59 60 64 64 63 64 66 67 63 58 56 56 56 60 59 58 56 55 55 54 53 51 51
62 61 59 59 58 56 57 57 56 56 56 57 58 58 58 59 58 61 64 62 62 63 65 62 57 56 53 53 55 57 56 55 54 53 53 51 50 52
60 59 59 55 54 53 53 56 56 57 57 57 57 57 59 59 60 61 61 59 61 62 66 61 58 56 53 52 52 54 55 54 54 53 51 50 50 51
56 56 55 53 52 52 54 55 54 55 57 56 56 56 57 59 59 59 61 62 63 62 66 63 58 56 52 51 50 52 53 53 53 52 52 50 50 50
56 55 54 52 52 54 56 56 56 59 58 57 56 57 58 59 60 60 60 61 63 64 65 65 60 55 56 52 49 50 50 51 53 52 52 51 50 50
54 55 55 55 55 57 58 58 59 59 58 58 57 58 59 59 60 61 61 62 59 55 59 63 60 57 56 52 51 50 50 49 51 51 51 51 52 50
53 56 56 57 57 58 57 58 58 59 59 59 58 58 58 59 60 61 60 59 56 54 53 53 54 54 53 52 50 51 50 50 51 51 51 51 52 52
54 55 55 56 56 57 57 57 58 58 58 59 59 58 58 57 57 58 58 57 55 53 52 53 53 52 52 52 52 50 50 50 51 51 51 50 50 52
56 54 55 56 56 56 57 57 57 57 58 59 58 57 57 57 57 56 55 55 53 53 53 54 54 54 52 49 50 51 49 50 50 50 50 50 48 50
55 56 55 56 57 57 57 57 57 57 57 58 57 57 57 56 56 55 55 54 53 53 53 54 55 54 52 50 49 50 50 49 49 48 50 51 52 52
56 56 56 56 56 57 57 57 56 56 57 57 57 57 56 56 55 55 54 52 53 53 53 53 54 54 52 52 50 50 50 50 51 50 52 49 50 51
55 56 56 56 56 56 57 56 55 55 55 55 55 55 55 55 54 54 54 53 53 53 53 53 54 53 52 51 50 50 50 51 51 52 52 52 49 46
52 55 57 57 56 56 56 55 55 55 54 54 54 54 55 55 55 54 53 53 52 52 52 52 51 51 51 51 50 48 48 49 50 50 51 52 53 53
Lifted_Index
-3 -3 -3 -3 -3 -3 -3 -3 -3 -3 -2 -2 -2 -2 -3 -3 -4 -4 -4 -3 -3 -2 -3 -3 -3 -3 -3 -3 -3 -3 -3 -2 -1 -0 0 0 0 -0
-3 -3 -3 -3 -3 -3 -3 -3 -3 -3 -3 -2 -3 -3 -3 -4 -4 -4 -4 -3 -3 -2 -2 -3 -3 -3 -3 -3 -3 -3 -3 -2 -1 -0 0 1 1 1
-3 -4 -4 -4 -4 -4 -4 -4 -4 -4 -3 -3 -3 -3 -4 -4 -4 -4 -4 -4 -3 -3 -3 -3 -3 -2 -3 -3 -3 -3 -2 -2 -1 -0 0 1 1 2
-4 -4 -4 -4 -3 -3 -3 -3 -3 -3 -4 -4 -4 -4 -4 -4 -4 -4 -4 -4 -4 -3 -3 -3 -3 -2 -2 -3 -3 -2 -2 -1 -1 -1 0 1 2 2
-4 -4 -4 -3 -3 -3 -3 -3 -3 -3 -4 -4 -4 -4 -4 -4 -4 -4 -4 -3 -3 -3 -3 -3 -3 -2 -2 -2 -2 -2 -1 -1 -1 -1 -0 1 2 3
-3 -4 -4 -3 -3 -3 -3 -3 -3 -3 -4 -4 -4 -4 -4 -3 -3 -3 -3 -3 -3 -3 -2 -2 -2 -2 -2 -2 -2 -2 -1 -1 -0 -0 0 1 3 3
-4 -4 -4 -4 -4 -4 -4 -4 -3 -3 -4 -4 -4 -4 -3 -3 -3 -3 -2 -2 -2 -2 -2 -2 -1 -2 -2 -2 -1 -1 -1 -1 -0 0 1 2 3 4
-4 -4 -3 -3 -3 -3 -3 -3 -3 -3 -4 -4 -4 -3 -3 -3 -3 -2 -2 -2 -2 -2 -1 -1 -1 -1 -1 -1 -1 -1 -0 -0 0 1 1 3 4 4
-3 -2 -2 -2 -2 -2 -2 -2 -3 -3 -3 -3 -3 -3 -2 -2 -2 -1 -1 -1 -1 -1 -0 -0 -1 -1 -1 -1 -0 0 0 0 1 2 3 4 4 5
-1 -1 -1 -1 -1 -1 -1 -2 -2 -1 -0 1 1 1 1 1 1 1 1 1 1 1 1 0 0 0 -0 0 1 1 1 1 2 3 4 5 5 5
-0 0 0 -0 -1 -1 -1 -1 -0 1 4 5 5 5 5 5 4 4 4 4 3 2 2 1 1 1 1 1 1 2 2 3 3 4 4 5 5 5
-0 1 1 0 0 0 1 2 2 4 5 6 6 6 6 7 7 7 6 6 5 4 3 3 3 3 2 2 2 2 3 4 4 4 5 5 6 6
-0 1 1 2 2 3 4 4 5 5 5 5 5 5 6 7 8 8 8 8 7 6 5 4 4 4 3 2 2 2 3 4 4 5 5 6 7 7
0 2 3 4 4 5 5 5 5 5 5 5 6 6 7 8 8 8 8 8 8 7 7 6 5 4 3 2 2 2 3 4 4 5 6 7 8 9
2 4 5 5 5 5 5 4 4 5 5 6 7 8 8 9 9 8 8 8 8 8 8 7 6 4 3 2 2 2 2 3 4 5 6 7 9 10
5 6 6 5 4 4 4 4 4 5 6 7 7 8 8 8 8 8 8 8 8 8 8 8 6 5 4 3 2 2 2 3 4 5 6 7 9 11
7 7 6 5 4 4 4 4 4 5 6 7 7 8 8 8 7 7 7 7 7 7 7 7 6 5 4 3 2 2 2 3 3 4 5 6 8 10
7 6 6 5 4 4 3 4 4 5 6 7 7 7 6 6 6 6 6 6 6 6 6 6 5 4 3 3 3 2 3 3 3 4 5 6 8 10
7 6 6 5 4 4 3 3 4 5 5 6 6 5 5 5 5 5 5 5 5 4 4 4 4 3 2 2 2 3 3 3 3 4 5 7 8 10
7 7 7 5 4 3 3 3 4 4 5 5 5 5 4 4 4 4 4 4 4 3 3 3 3 3 2 2 3 3 4 4 4 5 6 8 10 10
7 7 7 6 4 4 4 4 4 4 4 5 5 4 4 4 4 4 4 4 4 4 4 4 4 4 4 4 4 4 5 6 7 7 8 9 10 10
7 7 7 6 5 4 4 4 4 4 4 4 4 4 4 4 4 4 4 4 4 4 4 4 5 5 5 5 5 5 6 7 8 9 9 10 10 10
6 6 6 7 6 5 4 4 4 4 4 4 4 4 4 4 4 5 4 4 4 4 5 5 6 6 6 6 5 6 6 7 8 9 10 10 10 9